This is the latest recevied weather packets stored in our database for station/object DG2US-10. If no packets are shown the sender has not sent any weather packets the latest 1 day(s).
| Time | Temp. | Humidity | Pressure | Rain* | Wind** | Luminosity | Snow |
|---|---|---|---|---|---|---|---|
| 1778050557 | 16.67° C | 65% | 1005.5 hPa | - | - | - | - |
| 1778049657 | 16.11° C | 61% | 1005.5 hPa | - | - | - | - |
| 1778048757 | 16.11° C | 64% | 1005.3 hPa | - | - | - | - |
| 1778046956 | 15.56° C | 60% | 1005.2 hPa | - | - | - | - |
| 1778043356 | 12.78° C | 62% | 1004.9 hPa | - | - | - | - |
| 1778042456 | 12.78° C | 62% | 1004.7 hPa | - | - | - | - |
| 1778041556 | 13.33° C | 59% | 1005 hPa | - | - | - | - |
| 1778040656 | 13.33° C | 59% | 1005 hPa | - | - | - | - |
| 1778039756 | 13.33° C | 58% | 1005 hPa | - | - | - | - |
| 1778038856 | 13.33° C | 60% | 1005.1 hPa | - | - | - | - |
| 1778037956 | 13.33° C | 56% | 1005.1 hPa | - | - | - | - |
| 1778037056 | 13.33° C | 56% | 1005.2 hPa | - | - | - | - |
| 1778036156 | 13.89° C | 57% | 1005.2 hPa | - | - | - | - |
| 1778035255 | 13.89° C | 56% | 1005.3 hPa | - | - | - | - |
| 1778032555 | 13.89° C | 56% | 1005.6 hPa | - | - | - | - |
| 1778031655 | 13.89° C | 56% | 1005.7 hPa | - | - | - | - |
| 1778030755 | 13.89° C | 56% | 1005.7 hPa | - | - | - | - |
| 1778029855 | 13.89° C | 55% | 1005.8 hPa | - | - | - | - |
| 1778028955 | 13.89° C | 57% | 1005.8 hPa | - | - | - | - |
| 1778028055 | 13.89° C | 56% | 1005.7 hPa | - | - | - | - |
| 1778027155 | 13.89° C | 58% | 1005.6 hPa | - | - | - | - |
| 1778026255 | 13.89° C | 58% | 1005.7 hPa | - | - | - | - |
| 1778025355 | 13.89° C | 59% | 1005.8 hPa | - | - | - | - |
| 1778024455 | 13.89° C | 66% | 1005.7 hPa | - | - | - | - |
| 1778022655 | 13.33° C | 71% | 1006 hPa | - | - | - | - |
* Rain since midnight (hover to see other rain measurements)
** Current wind speed in m/s (hover to see current wind gust speed)